CAPE
0 0 1 20 4 0 1 2 0 0 0 0 0 0 0 0 0 0 0 0 0 0 0 58 1985 1761 1499 1401 1439 1315 1374 665 103 1 0 0 0 0 0 0 1 46 163 261 194 63 145 126 128
0 0 0 0 0 3 17 0 0 0 0 0 0 0 0 0 0 0 0 0 0 0 0 0 1680 2194 2073 1913 1569 1205 1177 814 326 153 58 63 43 1 0 0 7 73 155 243 272 207 87 231 149
0 0 5 0 0 1 1 0 0 0 0 0 0 0 0 0 0 0 0 0 0 0 0 0 334 2266 2262 1847 1238 1377 1239 961 604 331 427 322 188 130 6 11 20 83 132 251 290 284 198 181 198
0 0 0 0 13 0 0 0 0 0 0 0 0 0 0 0 0 0 0 0 0 0 0 0 1 581 1517 1750 1381 1619 960 768 505 291 466 347 268 217 191 52 57 69 136 224 343 193 292 181 245
0 0 0 2 5 0 0 0 0 0 0 0 0 0 0 0 0 0 0 0 0 0 0 0 129 581 1275 1327 1034 1116 750 751 298 247 242 307 500 336 160 164 98 96 89 102 190 381 283 445 637
0 0 0 8 30 6 0 0 0 0 0 0 0 0 0 0 0 0 0 0 0 0 0 0 41 399 257 525 482 224 106 85 79 109 117 131 163 213 158 160 171 154 122 84 61 191 286 381 671
0 0 0 0 0 1 0 0 0 0 0 0 0 0 0 0 0 0 0 0 0 0 0 0 0 0 0 0 0 0 0 0 7 3 15 51 70 165 184 186 221 154 108 88 5 45 333 304 413
0 0 0 0 9 9 1 0 0 0 0 0 0 0 0 0 0 0 0 0 0 0 0 0 0 0 0 0 0 0 0 0 1 7 19 115 97 170 188 314 247 172 196 189 86 59 267 313 345
0 0 0 2 8 21 12 0 0 0 0 0 0 0 0 0 0 0 0 0 0 0 0 0 0 0 0 0 0 0 0 0 3 7 15 22 141 130 229 199 189 203 144 149 140 111 303 348 302
0 0 0 0 1 5 3 0 0 0 0 0 0 0 0 0 0 0 0 0 0 0 0 0 0 0 0 0 11 26 24 8 8 13 12 30 76 299 113 61 103 256 235 169 162 170 356 368 428
0 0 0 0 0 0 0 0 0 0 0 0 0 0 0 0 0 0 0 0 0 0 0 0 0 0 0 6 19 25 20 22 19 10 50 29 83 388 386 108 87 201 168 230 250 169 310 275 627
0 0 0 0 0 0 0 0 0 0 0 0 0 0 0 0 0 0 0 0 0 0 0 0 0 0 4 18 31 27 76 64 35 132 40 334 330 306 349 376 84 371 273 306 446 200 273 541 763
0 0 0 0 1 1 0 0 0 0 0 0 0 0 0 0 0 0 0 0 0 0 0 0 0 3 39 27 41 58 76 96 130 128 157 450 387 465 219 178 184 265 404 468 566 300 464 831 646
0 0 0 0 0 1 3 0 0 0 0 0 0 0 0 0 0 0 0 0 0 0 0 0 0 50 69 86 82 131 171 203 142 94 221 443 431 525 437 198 424 749 390 403 394 378 446 844 497
0 0 0 0 0 0 1 0 0 0 0 0 0 0 0 0 0 0 0 0 0 0 0 0 1 29 115 143 138 178 225 280 251 231 276 361 543 573 464 345 186 305 643 582 561 594 659 655 484
0 0 0 2 0 0 0 0 0 0 0 0 0 0 0 0 0 0 0 0 0 0 0 0 1 37 127 238 307 272 328 413 485 545 492 453 595 661 681 788 754 749 827 724 536 571 573 518 497
0 0 2 3 0 0 0 0 0 0 0 0 0 0 0 0 0 0 0 0 0 0 0 0 1 29 140 118 190 245 369 401 427 403 577 406 595 692 805 922 902 830 743 786 642 496 615 475 469
0 0 0 0 0 0 0 0 0 0 0 0 0 0 0 0 0 0 0 0 0 0 0 0 1 41 63 234 108 289 517 599 403 228 90 260 515 532 853 909 822 800 618 748 793 725 583 546 581
0 0 0 0 0 0 0 0 0 0 0 0 0 0 0 0 0 0 0 0 0 0 0 0 0 0 0 105 288 331 379 120 342 160 90 50 272 380 605 700 738 645 677 767 823 815 736 641 634
0 0 0 0 0 0 0 0 0 0 0 0 0 0 0 0 0 0 0 0 0 0 0 0 0 0 0 118 439 412 297 124 4 27 52 83 50 317 482 645 670 608 578 771 795 854 726 928 1050
0 0 0 0 0 0 0 0 0 0 0 0 0 0 0 0 0 0 0 0 0 0 0 0 0 0 32 540 872 710 552 89 483 159 154 124 89 165 337 350 441 612 616 763 1153 1085 921 923 1175
0 0 0 0 0 0 0 0 0 0 0 0 1 0 0 0 0 0 0 0 0 0 0 0 0 38 135 397 199 504 649 297 279 542 480 147 241 111 172 366 465 676 632 1211 1183 1468 1020 1124 1019
0 0 0 0 0 0 0 0 0 0 0 0 0 34 6 0 0 0 0 0 0 0 0 0 2 30 442 381 136 144 469 971 666 452 405 332 544 340 254 304 505 683 1053 1066 1013 1097 1115 1069 616
0 0 0 0 0 0 0 0 0 0 0 0 0 75 39 8 0 0 0 0 0 0 0 0 0 0 180 369 228 167 88 143 268 255 224 172 519 615 426 258 267 727 952 1073 1391 1123 1255 1362 1427
0 0 0 4 7 0 0 0 0 0 0 0 3 10 37 15 0 0 0 0 0 0 0 0 0 0 0 37 111 53 162 224 172 192 139 195 224 583 367 248 445 636 745 907 1068 1279 1255 1076 726
0 0 0 2 6 12 0 0 0 0 0 52 113 215 64 11 0 0 0 0 0 0 0 0 0 0 0 0 1 16 40 38 88 488 242 219 288 86 133 162 396 355 567 666 1055 1192 1285 1055 560
0 0 0 0 0 3 2 1 0 1 13 80 164 115 25 2 0 0 0 0 0 0 0 0 0 0 0 0 0 0 0 2 99 676 643 308 170 224 230 232 197 502 677 576 910 1371 1316 926 212
0 0 0 0 1 14 8 0 10 30 33 443 326 190 22 2 0 0 0 0 0 0 0 20 1 0 0 0 0 0 0 0 27 219 271 157 110 21 47 296 480 394 607 735 863 1161 789 444 320
0 0 0 0 3 6 31 45 8 10 111 297 591 314 40 0 0 0 0 0 0 0 0 5 18 0 0 0 0 0 0 0 1 28 71 90 24 60 67 23 4 45 225 315 775 574 151 162 79
0 0 0 0 0 0 5 24 11 37 200 562 746 350 46 0 0 0 0 0 0 0 0 0 10 0 0 0 0 0 0 0 0 9 48 96 163 89 123 81 24 5 11 30 130 482 217 383 247
CIN
-0 -0 -108 -228 -16 -0 -0 -0 -0 -0 -0 -0 -0 -0 -0 -0 -0 -0 -0 -0 -0 -0 -0 -71 -25 -16 -16 -11 -2 -10 -5 -5 -21 -3 -0 -0 -0 -0 -0 -0 -0 -70 -18 -2 -11 -59 -20 -1 -11
-0 -0 -0 -0 -0 -0 -0 -0 -0 -0 -0 -0 -0 -0 -0 -0 -0 -0 -0 -0 -0 -0 -0 -0 -28 -12 -3 -5 -9 -14 -5 -3 -6 -7 -4 -47 -47 -0 -0 -0 -80 -54 -19 -2 -2 -12 -36 -0 -3
-0 -0 -75 -0 -0 -0 -0 -0 -0 -0 -0 -0 -0 -0 -0 -0 -0 -0 -0 -0 -0 -0 -0 -0 -61 -11 -5 -4 -10 -6 -1 -1 -0 -0 -0 -0 -2 -44 -0 -11 -130 -58 -23 -0 -0 -2 -11 -1 -1
-0 -0 -0 -0 -0 -0 -0 -0 -0 -0 -0 -0 -0 -0 -0 -0 -0 -0 -0 -0 -0 -0 -0 -0 -1 -52 -4 -4 -6 -1 -2 -1 -0 -0 -0 -0 -0 -4 -15 -139 -146 -106 -34 -4 -0 -3 -2 -1 -0
-0 -0 -0 -0 -0 -0 -0 -0 -0 -0 -0 -0 -0 -0 -0 -0 -0 -0 -0 -0 -0 -0 -0 -0 -116 -49 -8 -2 -1 -1 -1 -0 -0 -0 -0 -2 -0 -0 -34 -46 -123 -141 -109 -58 -10 -0 -1 -0 -0
-0 -0 -0 -0 -0 -0 -0 -0 -0 -0 -0 -0 -0 -0 -0 -0 -0 -0 -0 -0 -0 -0 -0 -0 -16 -48 -18 -23 -9 -15 -17 -19 -8 -4 -5 -12 -13 -7 -16 -27 -59 -99 -122 -107 -98 -10 -1 -5 -0
-0 -0 -0 -0 -0 -0 -0 -0 -0 -0 -0 -0 -0 -0 -0 -0 -0 -0 -0 -0 -0 -0 -0 -0 -0 -0 -0 -0 -0 -0 -0 -0 -15 -2 -2 -0 -0 -0 -0 -0 -14 -2 -0 -0 -0 -36 -2 -2 -2
-0 -0 -0 -0 -0 -0 -0 -0 -0 -0 -0 -0 -0 -0 -0 -0 -0 -0 -0 -0 -0 -0 -0 -0 -0 -0 -0 -0 -0 -0 -0 -0 -0 -0 -0 -6 -3 -1 -0 -0 -2 -0 -48 -53 -0 -4 -1 -4 -5
-0 -0 -0 -0 -0 -0 -0 -0 -0 -0 -0 -0 -0 -0 -0 -0 -0 -0 -0 -0 -0 -0 -0 -0 -0 -0 -0 -0 -0 -0 -0 -0 -0 -0 -0 -0 -0 -2 -0 -0 -0 -2 -1 -0 -31 -25 -3 -0 -6
-0 -0 -0 -0 -0 -0 -0 -0 -0 -0 -0 -0 -0 -0 -0 -0 -0 -0 -0 -0 -0 -0 -0 -0 -0 -0 -0 -0 -0 -0 -0 -0 -0 -0 -0 -15 -11 -0 -1 -7 -2 -2 -2 -1 -2 -24 -0 -0 -0
-0 -0 -0 -0 -0 -0 -0 -0 -0 -0 -0 -0 -0 -0 -0 -0 -0 -0 -0 -0 -0 -0 -0 -0 -0 -0 -0 -0 -0 -0 -0 -0 -0 -0 -22 -60 -29 -0 -0 -5 -2 -0 -2 -0 -0 -1 -0 -2 -0
-0 -0 -0 -0 -0 -0 -0 -0 -0 -0 -0 -0 -0 -0 -0 -0 -0 -0 -0 -0 -0 -0 -0 -0 -0 -0 -0 -0 -0 -0 -0 -0 -0 -0 -23 -0 -0 -0 -1 -0 -0 -0 -0 -0 -0 -0 -1 -0 -0
-0 -0 -0 -0 -11 -13 -0 -0 -0 -0 -0 -0 -0 -0 -0 -0 -0 -0 -0 -0 -0 -0 -0 -0 -0 -1 -0 -0 -0 -0 -0 -0 -0 -1 -0 -0 -0 -0 -2 -9 -2 -0 -0 -0 -0 -0 -0 -0 -0
-0 -0 -0 -0 -0 -16 -26 -0 -0 -0 -0 -0 -0 -0 -0 -0 -0 -0 -0 -0 -0 -0 -0 -0 -0 -92 -0 -50 -0 -0 -0 -0 -0 -4 -0 -0 -0 -0 -0 -3 -0 -0 -0 -0 -0 -0 -0 -0 -0
-0 -0 -0 -0 -0 -0 -8 -0 -0 -0 -0 -0 -0 -0 -0 -0 -0 -0 -0 -0 -0 -0 -0 -0 -0 -7 -31 -14 -26 -11 -0 -0 -0 -0 -0 -0 -0 -0 -0 -0 -3 -0 -0 -0 -0 -0 -0 -0 -0
-0 -0 -0 -2 -0 -0 -0 -0 -0 -0 -0 -0 -0 -0 -0 -0 -0 -0 -0 -0 -0 -0 -0 -0 -0 -49 -27 -2 -2 -9 -1 -1 -0 -0 -0 -0 -0 -0 -0 -0 -0 -0 -0 -0 -0 -0 -0 -0 -0
-0 -0 -0 -0 -0 -0 -0 -0 -0 -0 -0 -0 -0 -0 -0 -0 -0 -0 -0 -0 -0 -0 -0 -0 -0 -66 -21 -33 -0 -5 -1 -1 -3 -0 -0 -0 -0 -0 -0 -0 -0 -0 -0 -0 -0 -0 -0 -0 -0
-0 -0 -0 -0 -0 -0 -0 -0 -0 -0 -0 -0 -0 -0 -0 -0 -0 -0 -0 -0 -0 -0 -0 -0 -0 -58 -75 -16 -16 -5 -0 -0 -0 -0 -14 -0 -0 -0 -0 -0 -0 -0 -0 -0 -0 -0 -0 -0 -0
-0 -0 -0 -0 -0 -0 -0 -0 -0 -0 -0 -0 -0 -0 -0 -0 -0 -0 -0 -0 -0 -0 -0 -0 -0 -0 -0 -34 -0 -0 -0 -0 -4 -0 -0 -0 -0 -0 -0 -0 -0 -0 -0 -0 -0 -0 -0 -0 -0
-0 -0 -0 -0 -0 -0 -0 -0 -0 -0 -0 -0 -0 -0 -0 -0 -0 -0 -0 -0 -0 -0 -0 -0 -0 -0 -0 -30 -0 -0 -1 -8 -10 -12 -0 -0 -0 -0 -0 -0 -0 -0 -0 -0 -0 -0 -0 -0 -0
-0 -0 -0 -0 -0 -0 -0 -0 -0 -0 -0 -0 -0 -0 -0 -0 -0 -0 -0 -0 -0 -0 -0 -0 -0 -0 -25 -2 -0 -0 -0 -12 -0 -0 -0 -6 -5 -1 -0 -0 -0 -0 -0 -0 -0 -0 -0 -0 -0
-0 -0 -0 -0 -0 -0 -0 -0 -0 -0 -0 -0 -92 -0 -0 -0 -0 -0 -0 -0 -0 -0 -0 -0 -0 -19 -12 -2 -2 -0 -0 -0 -0 -0 -1 -0 -0 -9 -8 -0 -0 -0 -0 -0 -0 -0 -0 -0 -0
-0 -0 -0 -0 -0 -0 -0 -0 -0 -0 -0 -0 -0 -58 -188 -8 -0 -0 -0 -0 -0 -0 -0 -0 -71 -20 -0 -4 -16 -3 -0 -0 -0 -0 -1 -0 -0 -0 -0 -0 -0 -0 -0 -0 -0 -0 -0 -0 -0
-0 -0 -0 -0 -0 -0 -0 -0 -0 -0 -0 -0 -0 -56 -154 -93 -0 -0 -0 -0 -0 -0 -0 -0 -0 -0 -7 -0 -3 -6 -5 -5 -0 -2 -2 -0 -1 -0 -0 -0 -0 -0 -0 -0 -0 -0 -0 -0 -0
-0 -0 -0 -0 -0 -0 -0 -0 -0 -0 -0 -0 -66 -67 -96 -79 -0 -0 -0 -0 -0 -0 -0 -0 -0 -0 -0 -13 -7 -5 -0 -4 -4 -1 -0 -22 -4 -0 -1 -0 -4 -0 -0 -0 -0 -0 -0 -2 -10
-0 -0 -0 -0 -0 -0 -0 -0 -0 -0 -0 -61 -45 -71 -176 -52 -0 -0 -0 -0 -0 -0 -0 -0 -0 -0 -0 -0 -4 -31 -19 -1 -23 -0 -1 -4 -0 -0 -1 -2 -2 -0 -0 -0 -0 -0 -0 -0 -7
-0 -0 -0 -0 -0 -0 -0 -0 -0 -0 -10 -19 -52 -146 -138 -65 -0 -0 -0 -0 -0 -0 -0 -0 -0 -0 -0 -0 -0 -0 -0 -19 -9 -0 -0 -9 -7 -3 -1 -1 -2 -1 -0 -1 -0 -0 -0 -0 -12
-0 -0 -0 -0 -0 -0 -0 -0 -0 -0 -0 -11 -51 -121 -216 -38 -0 -0 -0 -0 -0 -0 -0 -126 -25 -0 -0 -0 -0 -0 -0 -0 -15 -4 -1 -13 -32 -73 -50 -4 -0 -0 -0 -0 -0 -0 -0 -12 -0
-0 -0 -0 -0 -0 -0 -27 -0 -1 -1 -1 -2 -14 -73 -179 -5 -0 -0 -0 -0 -0 -0 -0 -169 -53 -0 -0 -0 -0 -0 -0 -0 -4 -20 -11 -24 -40 -28 -44 -54 -37 -20 -3 -0 -0 -0 -5 -2 -2
-0 -0 -0 -0 -0 -0 -0 -3 -0 -7 -4 -6 -10 -76 -130 -0 -0 -0 -0 -0 -0 -0 -0 -0 -115 -0 -0 -0 -0 -0 -0 -0 -0 -15 -12 -10 -19 -32 -22 -18 -37 -1 -11 -29 -5 -0 -0 -15 -1
Wind_Speed
nan nan nan nan nan nan nan nan nan nan nan nan nan nan nan nan nan nan nan nan nan nan nan nan 40 41 40 39 37 38 37 34 34 nan nan nan nan nan nan nan nan nan 30 29 28 nan 32 37 40
nan nan nan nan nan nan nan nan nan nan nan nan nan nan nan nan nan nan nan nan nan nan nan nan 46 42 40 40 38 37 36 33 32 31 nan nan nan nan nan nan nan nan 28 28 26 28 nan 34 37
nan nan nan nan nan nan nan nan nan nan nan nan nan nan nan nan nan nan nan nan nan nan nan nan 35 38 39 39 37 39 37 35 34 31 27 23 21 21 nan nan nan nan 25 26 23 27 28 32 35
nan nan nan nan nan nan nan nan nan nan nan nan nan nan nan nan nan nan nan nan nan nan nan nan nan 33 34 36 34 33 32 32 31 25 23 20 18 18 18 nan nan nan 25 26 24 26 27 28 30
nan nan nan nan nan nan nan nan nan nan nan nan nan nan nan nan nan nan nan nan nan nan nan nan 38 35 34 34 33 31 32 33 32 27 24 22 20 21 23 24 nan nan nan 28 26 29 31 29 32
nan nan nan nan nan nan nan nan nan nan nan nan nan nan nan nan nan nan nan nan nan nan nan nan nan 36 35 36 34 37 37 nan nan 27 23 20 19 19 18 21 21 23 25 nan nan 29 32 34 34
nan nan nan nan nan nan nan nan nan nan nan nan nan nan nan nan nan nan nan nan nan nan nan nan nan nan nan nan nan nan nan nan nan nan nan nan nan 17 13 17 16 21 25 nan nan nan 31 36 37
nan nan nan nan nan nan nan nan nan nan nan nan nan nan nan nan nan nan nan nan nan nan nan nan nan nan nan nan nan nan nan nan nan nan nan 23 nan 21 21 22 20 17 25 22 nan nan 30 33 39
nan nan nan nan nan nan nan nan nan nan nan nan nan nan nan nan nan nan nan nan nan nan nan nan nan nan nan nan nan nan nan nan nan nan nan nan 24 26 29 26 23 22 20 23 26 31 31 33 34
nan nan nan nan nan nan nan nan nan nan nan nan nan nan nan nan nan nan nan nan nan nan nan nan nan nan nan nan nan nan nan nan nan nan nan nan nan 23 28 nan 26 20 18 22 28 31 32 32 35
nan nan nan nan nan nan nan nan nan nan nan nan nan nan nan nan nan nan nan nan nan nan nan nan nan nan nan nan nan nan nan nan nan nan nan nan nan 21 19 23 nan 29 24 24 27 29 32 32 32
nan nan nan nan nan nan nan nan nan nan nan nan nan nan nan nan nan nan nan nan nan nan nan nan nan nan nan nan nan nan nan nan nan 23 nan 19 17 18 18 16 nan 29 34 25 26 39 36 30 30
nan nan nan nan nan nan nan nan nan nan nan nan nan nan nan nan nan nan nan nan nan nan nan nan nan nan nan nan nan nan nan nan 21 24 16 16 11 11 13 12 13 18 30 31 26 33 37 31 30
nan nan nan nan nan nan nan nan nan nan nan nan nan nan nan nan nan nan nan nan nan nan nan nan nan nan nan nan nan 28 28 24 23 nan 10 11 11 6 7 13 14 16 20 27 31 29 35 36 32
nan nan nan nan nan nan nan nan nan nan nan nan nan nan nan nan nan nan nan nan nan nan nan nan nan nan 28 27 26 27 25 25 21 18 9 9 11 4 4 11 15 17 23 29 31 31 36 38 38
nan nan nan nan nan nan nan nan nan nan nan nan nan nan nan nan nan nan nan nan nan nan nan nan nan nan 25 22 24 23 20 23 19 17 8 6 9 11 3 2 10 17 20 26 29 29 35 36 37
nan nan nan nan nan nan nan nan nan nan nan nan nan nan nan nan nan nan nan nan nan nan nan nan nan nan 20 21 21 20 21 23 23 17 10 5 6 10 8 6 5 10 17 22 27 30 37 36 34
nan nan nan nan nan nan nan nan nan nan nan nan nan nan nan nan nan nan nan nan nan nan nan nan nan nan nan 18 25 15 16 17 15 15 nan 9 8 7 9 8 5 13 18 21 24 31 35 31 33
nan nan nan nan nan nan nan nan nan nan nan nan nan nan nan nan nan nan nan nan nan nan nan nan nan nan nan 11 13 11 13 10 21 26 nan nan 17 9 9 7 9 14 16 18 22 27 26 30 31
nan nan nan nan nan nan nan nan nan nan nan nan nan nan nan nan nan nan nan nan nan nan nan nan nan nan nan 8 12 11 14 11 nan nan nan nan nan 11 7 6 10 13 19 19 18 22 26 30 29
nan nan nan nan nan nan nan nan nan nan nan nan nan nan nan nan nan nan nan nan nan nan nan nan nan nan nan 11 15 10 15 nan 21 18 16 21 nan 17 13 7 9 13 18 20 21 23 22 25 33
nan nan nan nan nan nan nan nan nan nan nan nan nan nan nan nan nan nan nan nan nan nan nan nan nan nan 10 9 17 9 7 9 13 17 16 15 14 10 5 10 10 14 20 19 23 26 25 25 33
nan nan nan nan nan nan nan nan nan nan nan nan nan nan nan nan nan nan nan nan nan nan nan nan nan nan 10 10 13 8 3 8 12 14 12 10 11 13 13 5 5 11 19 17 19 23 25 28 32
nan nan nan nan nan nan nan nan nan nan nan nan nan nan nan nan nan nan nan nan nan nan nan nan nan nan 11 9 10 8 nan 3 7 12 10 12 11 11 6 5 8 9 12 16 22 26 26 26 33
nan nan nan nan nan nan nan nan nan nan nan nan nan nan nan nan nan nan nan nan nan nan nan nan nan nan nan nan 11 nan 7 8 15 11 9 15 15 12 11 7 9 13 13 16 19 23 28 32 34
nan nan nan nan nan nan nan nan nan nan nan nan 14 8 nan nan nan nan nan nan nan nan nan nan nan nan nan nan nan nan nan nan nan 13 14 11 8 nan 14 16 14 16 15 17 18 23 28 44 25
nan nan nan nan nan nan nan nan nan nan nan nan 15 15 nan nan nan nan nan nan nan nan nan nan nan nan nan nan nan nan nan nan nan 11 14 13 10 10 11 13 12 16 19 15 17 27 28 22 30
nan nan nan nan nan nan nan nan nan nan nan 20 17 18 nan nan nan nan nan nan nan nan nan nan nan nan nan nan nan nan nan nan nan 8 8 12 10 nan nan 13 15 18 13 21 17 23 16 23 12
nan nan nan nan nan nan nan nan nan nan 18 17 21 22 nan nan nan nan nan nan nan nan nan nan nan nan nan nan nan nan nan nan nan nan nan nan nan nan nan nan nan nan 20 18 14 17 20 24 nan
nan nan nan nan nan nan nan nan nan nan 18 11 19 23 nan nan nan nan nan nan nan nan nan nan nan nan nan nan nan nan nan nan nan nan nan nan 9 nan 10 nan nan nan nan nan 14 13 12 13 13
Wind_Direction
nan nan nan nan nan nan nan nan nan nan nan nan nan nan nan nan nan nan nan nan nan nan nan nan 330 332 330 327 325 320 317 317 314 nan nan nan nan nan nan nan nan nan 254 252 253 nan 233 231 221
nan nan nan nan nan nan nan nan nan nan nan nan nan nan nan nan nan nan nan nan nan nan nan nan 326 331 329 326 324 320 318 316 313 310 nan nan nan nan nan nan nan nan 255 255 252 244 nan 232 221
nan nan nan nan nan nan nan nan nan nan nan nan nan nan nan nan nan nan nan nan nan nan nan nan 316 326 330 328 328 324 319 313 311 309 305 299 288 275 nan nan nan nan 252 256 249 236 238 234 221
nan nan nan nan nan nan nan nan nan nan nan nan nan nan nan nan nan nan nan nan nan nan nan nan nan 323 329 328 322 315 311 308 307 301 295 284 278 268 260 nan nan nan 246 243 242 229 222 234 219
nan nan nan nan nan nan nan nan nan nan nan nan nan nan nan nan nan nan nan nan nan nan nan nan 317 325 325 321 317 312 308 301 297 293 286 279 273 259 262 270 nan nan nan 247 235 222 218 217 222
nan nan nan nan nan nan nan nan nan nan nan nan nan nan nan nan nan nan nan nan nan nan nan nan nan 315 308 307 304 297 296 nan nan 288 279 271 262 267 261 267 265 262 259 nan nan 216 212 211 216
nan nan nan nan nan nan nan nan nan nan nan nan nan nan nan nan nan nan nan nan nan nan nan nan nan nan nan nan nan nan nan nan nan nan nan nan nan 259 265 268 269 256 252 nan nan nan 204 210 209
nan nan nan nan nan nan nan nan nan nan nan nan nan nan nan nan nan nan nan nan nan nan nan nan nan nan nan nan nan nan nan nan nan nan nan 278 nan 261 259 265 274 262 239 231 nan nan 205 208 211
nan nan nan nan nan nan nan nan nan nan nan nan nan nan nan nan nan nan nan nan nan nan nan nan nan nan nan nan nan nan nan nan nan nan nan nan 286 267 265 261 261 259 243 229 203 203 203 203 208
nan nan nan nan nan nan nan nan nan nan nan nan nan nan nan nan nan nan nan nan nan nan nan nan nan nan nan nan nan nan nan nan nan nan nan nan nan 265 247 nan 244 232 228 219 200 199 202 204 207
nan nan nan nan nan nan nan nan nan nan nan nan nan nan nan nan nan nan nan nan nan nan nan nan nan nan nan nan nan nan nan nan nan nan nan nan nan 261 257 253 nan 230 228 218 208 199 199 202 207
nan nan nan nan nan nan nan nan nan nan nan nan nan nan nan nan nan nan nan nan nan nan nan nan nan nan nan nan nan nan nan nan nan 311 nan 313 304 274 255 248 nan 229 215 208 205 196 198 202 206
nan nan nan nan nan nan nan nan nan nan nan nan nan nan nan nan nan nan nan nan nan nan nan nan nan nan nan nan nan nan nan nan 341 336 314 318 306 271 246 239 226 208 211 206 200 200 202 203 205
nan nan nan nan nan nan nan nan nan nan nan nan nan nan nan nan nan nan nan nan nan nan nan nan nan nan nan nan nan 343 337 335 341 nan 346 341 329 292 233 225 214 206 212 214 202 198 201 204 203
nan nan nan nan nan nan nan nan nan nan nan nan nan nan nan nan nan nan nan nan nan nan nan nan nan nan 346 350 351 356 360 357 347 349 351 12 29 25 237 227 217 224 222 212 204 199 196 198 198
nan nan nan nan nan nan nan nan nan nan nan nan nan nan nan nan nan nan nan nan nan nan nan nan nan nan 347 356 9 9 -0 5 1 356 14 9 37 50 65 216 212 214 212 197 198 197 194 194 198
nan nan nan nan nan nan nan nan nan nan nan nan nan nan nan nan nan nan nan nan nan nan nan nan nan nan 344 7 5 2 5 1 3 353 351 86 69 61 71 99 188 196 182 189 191 192 190 196 192
nan nan nan nan nan nan nan nan nan nan nan nan nan nan nan nan nan nan nan nan nan nan nan nan nan nan nan 3 359 348 358 9 9 21 nan 124 114 107 93 101 136 180 179 185 187 181 185 192 193
nan nan nan nan nan nan nan nan nan nan nan nan nan nan nan nan nan nan nan nan nan nan nan nan nan nan nan 8 18 21 11 357 24 34 nan nan 88 107 114 133 137 147 166 165 169 176 186 191 188
nan nan nan nan nan nan nan nan nan nan nan nan nan nan nan nan nan nan nan nan nan nan nan nan nan nan nan 32 26 18 24 37 nan nan nan nan nan 83 92 109 133 141 171 166 170 167 177 179 183
nan nan nan nan nan nan nan nan nan nan nan nan nan nan nan nan nan nan nan nan nan nan nan nan nan nan nan 33 334 332 6 nan 16 33 51 49 nan 73 78 107 139 148 155 163 159 165 169 178 177
nan nan nan nan nan nan nan nan nan nan nan nan nan nan nan nan nan nan nan nan nan nan nan nan nan nan 354 0 351 333 315 350 46 38 29 45 48 38 65 95 134 157 156 169 161 165 162 180 181
nan nan nan nan nan nan nan nan nan nan nan nan nan nan nan nan nan nan nan nan nan nan nan nan nan nan 346 347 356 17 46 31 51 22 21 29 44 42 57 89 141 171 179 177 173 178 179 187 178
nan nan nan nan nan nan nan nan nan nan nan nan nan nan nan nan nan nan nan nan nan nan nan nan nan nan 341 338 343 337 nan 24 33 55 43 65 68 75 88 90 142 144 157 174 181 191 199 193 183
nan nan nan nan nan nan nan nan nan nan nan nan nan nan nan nan nan nan nan nan nan nan nan nan nan nan nan nan 338 nan 3 27 44 37 73 74 79 85 89 134 141 138 159 165 173 178 185 179 177
nan nan nan nan nan nan nan nan nan nan nan nan 283 272 nan nan nan nan nan nan nan nan nan nan nan nan nan nan nan nan nan nan nan 47 58 68 87 nan 100 124 142 153 159 159 161 160 164 169 185
nan nan nan nan nan nan nan nan nan nan nan nan 290 290 nan nan nan nan nan nan nan nan nan nan nan nan nan nan nan nan nan nan nan 59 67 77 94 105 120 102 110 168 162 157 166 157 167 196 177
nan nan nan nan nan nan nan nan nan nan nan 273 287 298 nan nan nan nan nan nan nan nan nan nan nan nan nan nan nan nan nan nan nan 67 61 78 65 nan nan 140 137 134 153 161 162 175 173 186 159
nan nan nan nan nan nan nan nan nan nan 258 256 287 306 nan nan nan nan nan nan nan nan nan nan nan nan nan nan nan nan nan nan nan nan nan nan nan nan nan nan nan nan 135 149 169 182 166 198 nan
nan nan nan nan nan nan nan nan nan nan 259 267 294 305 nan nan nan nan nan nan nan nan nan nan nan nan nan nan nan nan nan nan nan nan nan nan 77 nan 82 nan nan nan nan nan 166 157 173 160 177